COMPLETED DISPATCHED CALLS FOR SERVICE

Welcome to the Jacksonville Sheriff’s Office Completed Dispatched Calls for Service webpage. This page displays calls for service made to the Jacksonville Sheriff's Office that have recently been completed. The data on this page is refreshed automatically.

This information is not intended to be used as official crime data. This program does not provide information about all crimes, and excludes specific incidents such as sexual assaults and child abuse.

Disclaimer: The Jacksonville Sheriff's Office makes every effort to produce and publish current and accurate information. No warranties, expressed or implied, are provided for the data herein, its use, or its interpretation. The services provided are for informational purposes only and should not be relied on for any type of legal action.

Last refreshed 4/5 08:26:41

Incident # Dispatched Block Address Signal Call Description  
202000223984 4-5 07:18 200 LANE AVE N 63 DISPUTE
202000223983 4-5 07:16 6300 COLLINS RD 1066 CANCEL
202000223980 4-5 07:09 13800 CYRUS CT 64 NOISE COMPLAINT
202000223979 4-5 07:07 I95 S OFF RAMP / LEM TURNER RD 1050 TRAFFIC STOP
202000223971 4-5 07:03 7700 LEM TURNER RD 37 UNVERIFIED 911 CALL
202000223923 4-5 06:54 700 SKYMARKS DR 63 DISPUTE
202000223957 4-5 06:38 3100 TERRACE AVE 63 DISPUTE
202000223950 4-5 06:36 1000 LANE AVE N 13 SUSPICIOUS PERSON
202000223951 4-5 06:33 7300 ARGYLE FOREST BLVD 63 DISPUTE
202000223939 4-5 06:21 2300 WOODLAND ST 22 DOMESTIC
202000223938 4-5 06:20 9000 NORMANDY BLVD 1066 CANCEL
202000223936 4-5 06:17 2000 OAK WATER DR 63 DISPUTE
202000223929 4-5 06:07 8300 BAYMEADOWS RD 88 ASSAULT
202000223905 4-5 06:05 400 PECAN PARK RD 63 DISPUTE
202000223880 4-5 06:00 1600 MALLORY ST 64 NOISE COMPLAINT
202000223919 4-5 05:52 200 43RD ST W 14RJ VANDALISM RESIDENCE JUST OCCURRED
202000223888 4-5 05:50 800 ROCK BAY DR 37 UNVERIFIED 911 CALL
202000223910 4-5 05:43 11100 VERA DR 26EB PERSON WITH EXTREME BEHAVIOR
202000223875 4-5 05:32 2000 OAK WATER DR 13 SUSPICIOUS PERSON
202000223896 4-5 05:27 8500 OLD PLANK RD 33 DISCHARGING OF FIREARM
202000223895 4-5 05:24 2200 EDGEWOOD AVENUE WEST 54 ILLEGALLY PARKED CAR
202000223873 4-5 05:21 4700 KINGSBURY ST 63 DISPUTE
202000223889 4-5 05:20 I295 S ON RAMP / ROOSEVELT BLVD 16 ROAD OBSTRUCTION
202000221258 4-5 05:10 6100 COLLINS RD 7 DEAD PERSON
202000223874 4-5 05:03 12200 ATLANTIC BLVD 13 SUSPICIOUS PERSON
202000223878 4-5 04:59 I295 N OFF RAMP / MONUMENT RD 1050 TRAFFIC STOP
202000223876 4-5 04:56 800 FRANKLIN ST 19 ANIMAL INVESTIGATION
202000223817 4-5 04:48 6000 NEW KINGS RD 63 DISPUTE
202000223865 4-5 04:48 400 LANE AVE S 0 63 ARMED DISPUTE
202000223847 4-5 04:47 500 JULIA ST N 27 MENTALLY ILL PERSON
202000223864 4-5 04:45 2100 JAMES HALL DR 0 63 ARMED DISPUTE
202000223870 4-5 04:41 4300 TROUT RIVER BLVD 4 AUTO CRASH
202000223869 4-5 04:39 10800 HARTS RD 60 SUICIDE OR ATTEMPT
202000223867 4-5 04:38 1300 ELLIS TRACE DR W 14CP VANDALISM CONVEYANCE IN PROGRESS
202000223862 4-5 04:34 600 4TH ST W 2288 DOMESTIC DISPUTE WITH/ASSAULT
202000223833 4-5 04:29 800 FRANKLIN ST 27 MENTALLY ILL PERSON
202000223843 4-5 04:28 300 ASHLEY ST W 96 ASSIST MOTORIST
202000223854 4-5 04:26 8200 DIX ELLIS TRL 76 ASSIST OTHER AGENCY
202000223848 4-5 04:25 3000 NOLAN ST 13 SUSPICIOUS PERSON
202000223802 4-5 04:23 2000 SPRING PARK RD 2 22 DOMESTIC DISTURBANCE
202000223844 4-5 04:18 5200 SOUTEL DR 9J THEFT JUST OCCURRED
202000223815 4-5 04:16 500 60TH ST E 1066 CANCEL
202000223845 4-5 04:13 LEM/LILA 1050 TRAFFIC STOP
202000223819 4-5 04:11 2000 EUCLID ST 10R VEHICLE THEFT RECOVERY
202000223836 4-5 04:04 3700 MOORINGS LN 22 DOMESTIC
202000223823 4-5 04:02 1700 WHITNER ST 22 DOMESTIC
202000223798 4-5 04:02 2300 EDGEWOOD AVE W 63 DISPUTE
202000223832 4-5 04:00 MCDUFF/BEAVER 13 SUSPICIOUS PERSON
202000223813 4-5 03:59 5400 SPRINGFIELD BLVD 27 MENTALLY ILL PERSON
202000223829 4-5 03:58 3100 PHILIPS HWY 63 DISPUTE
202000223828 4-5 03:57 200 UNION ST W 6388 DISPUTE WITH ASSAULT
202000223822 4-5 03:52 I95 N ON RAMP / KINGS RD 12 RECKLESS DRIVER
202000223709 4-5 03:50 1500 HAMMOND BLVD 16 ROAD OBSTRUCTION
202000223818 4-5 03:49 SPRINGFIELD BLVD / BIRCH ST 1050 TRAFFIC STOP
202000223793 4-5 03:49 2800 ERNEST ST 64 NOISE COMPLAINT
202000223809 4-5 03:41 400 ASHLEY ST E 37 UNVERIFIED 911 CALL
202000223806 4-5 03:37 2300 COMMONWEALTH AVE 63 DISPUTE
202000223804 4-5 03:31 GOLFAIR BLVD / DAVIS ST N 1050 TRAFFIC STOP
202000223797 4-5 03:28 100 45TH ST W 22 DOMESTIC
202000223799 4-5 03:26 5600 EDENFIELD RD 56 JUVENILE COMPLAINT
202000223796 4-5 03:22 8300 RAMONA BLVD W 21B BURGLARY BUSINESS
202000223791 4-5 03:20 1600 30TH ST W 63 DISPUTE
202000223795 4-5 03:20 10800 HARTS RD 13 SUSPICIOUS PERSON
202000223644 4-5 03:15 6700 103RD ST 21R BURGLARY RESIDENCE
202000223792 4-5 03:13 5400 LA MOYA AVE 13 SUSPICIOUS PERSON
202000223789 4-5 03:09 PEARL ST N / 23RD ST W 1050 TRAFFIC STOP
202000223733 4-5 03:08 SAN JOSE BLVD / HARTLEY RD 12 RECKLESS DRIVER
202000223746 4-5 03:07 5000 SHARON TER 27 MENTALLY ILL PERSON
202000223783 4-5 03:05 2000 OAK WATER DR 37 UNVERIFIED 911 CALL
202000223784 4-5 03:04 5100 COLLINS RD 2288 DOMESTIC DISPUTE WITH/ASSAULT
202000223780 4-5 03:01 WISTERIA/CARNATION 1050 TRAFFIC STOP
202000223772 4-5 02:58 6600 SALT POND CT 63 DISPUTE
202000223736 4-5 02:58 7100 OVERLAND PARK BLVD E 64 NOISE COMPLAINT
202000223779 4-5 02:58 5200 NORMANDY BLVD 13 SUSPICIOUS PERSON
202000005201 4-5 02:57 100 U N F DR 96 ASSIST MOTORIST
202000223778 4-5 02:56 BEACH BLVD / HART EXPY 1050 TRAFFIC STOP
202000223777 4-5 02:56 11000 NORMANDY BLVD 38 TRAFFIC ASSIGNMENT
202000223761 4-5 02:52 5000 REDFORD MANOR DR 19 ANIMAL INVESTIGATION
202000223771 4-5 02:48 BOULEVARD / MLKEXIT BLVD RP 1050 TRAFFIC STOP
202000223768 4-5 02:48 1300 IMESON ST 22 DOMESTIC
202000223669 4-5 02:47 6300 MORSE AVE 13 SUSPICIOUS PERSON
202000223770 4-5 02:47 HURON ST / BROADWAY AVE 76 ASSIST OTHER AGENCY
202000223758 4-5 02:46 5300 LENOX AVE 21C BURGLARY CONVEYANCE
202000223767 4-5 02:45 2700 GILMORE ST 22 DOMESTIC
202000223755 4-5 02:44 1000 LANE AVE N 63 DISPUTE
202000223766 4-5 02:44 2100 WILLIAMS ST 33 DISCHARGING OF FIREARM
202000223750 4-5 02:43 ATLANTIC BLVD / UNIVERSITY BLVD 16 ROAD OBSTRUCTION
202000223757 4-5 02:43 5100 INDIAN LAKES CT 2 IMPAIRED/INTOXICATED
202000223764 4-5 02:41 MONCIEF/ROWE 1050 TRAFFIC STOP
202000223759 4-5 02:37 BAISDEN RD / EMUNESS RD 12 RECKLESS DRIVER
202000223722 4-5 02:36 2200 CALVIN ST 63 DISPUTE
202000223756 4-5 02:31 6100 YOUNGERMAN CIR 0 13 ARMED SUSPICIOUS PERSON
202000223751 4-5 02:28 4600 MAPLE LAKES DR 21RP BURGLARY RESIDENCE IN PROGRESS
202000223743 4-5 02:27 6500 KINLOCK DR W 6388 DISPUTE WITH ASSAULT
202000223581 4-5 02:25 1100 ORTON ST 64 NOISE COMPLAINT
202000223749 4-5 02:24 TOWNSEND RD / BLANDING BLVD 1050 TRAFFIC STOP
202000223740 4-5 02:23 6800 HOLIDAY RD N 2288 DOMESTIC DISPUTE WITH/ASSAULT
202000223728 4-5 02:23 CHAFFEE RD S / WEST MEADOWS DR N 56 JUVENILE COMPLAINT
202000223744 4-5 02:20 1800 DECOTTES ST 63 DISPUTE
202000223741 4-5 02:19 200 OCEANWAY AVE 1066 CANCEL
202000223742 4-5 02:18 6800 ARLINGTON EXPY 73 DRUG INVESTIGATION
202000223730 4-5 02:16 1800 FRANCIS ST 3 HIT AND RUN CRASH
202000223704 4-5 02:16 2700 GILMORE ST 22 DOMESTIC
202000223738 4-5 02:16 3700 ST JOHNS BLUFF RD S 13 SUSPICIOUS PERSON
202000223737 4-5 02:16 500 LANE AVE S 13 SUSPICIOUS PERSON
202000223735 4-5 02:15 11500 LOIS CROSS DR 13 SUSPICIOUS PERSON
202000223732 4-5 02:11 BLANDING BLVD / BIRKENHEAD RD 13 SUSPICIOUS PERSON
202000223701 4-5 02:07 2300 DELLWOOD AVE 63 DISPUTE
202000223727 4-5 02:06 3700 ST JOHNS BLUFF RD S 64 NOISE COMPLAINT
202000223694 4-5 02:06 11400 CARSON LAKE DR 37 UNVERIFIED 911 CALL
202000223723 4-5 02:01 1500 MCCONIHE ST 63 DISPUTE
202000223717 4-5 02:00 10100 OLD ST AUGUSTINE RD 27 MENTALLY ILL PERSON
202000223713 4-5 01:59 11500 LOIS CROSS DR 13 SUSPICIOUS PERSON
202000223711 4-5 01:57 15200 MAX LEGGETT PKWY 60 SUICIDE OR ATTEMPT
202000223699 4-5 01:55 8500 GATE PKWY W 2288 DOMESTIC DISPUTE WITH/ASSAULT
202000223708 4-5 01:54 1100 KENDALL TOWN BLVD 2288 DOMESTIC DISPUTE WITH/ASSAULT
202000223710 4-5 01:54 LEM TURNER/95 16 ROAD OBSTRUCTION
202000223692 4-5 01:52 2100 LAMBERT ST 64 NOISE COMPLAINT
202000223672 4-5 01:50 900 POST ST 63 DISPUTE
202000223705 4-5 01:50 DUVAL STATION RD / MAIN ST N 63 DISPUTE
202000223703 4-5 01:48 I95 / DUNN AVE 38 TRAFFIC ASSIGNMENT
202000223700 4-5 01:47 1000 AIRPORT RD 63 DISPUTE
202000223671 4-5 01:43 CHAFFEE RD N / BEAVER ST W 10R VEHICLE THEFT RECOVERY
202000223697 4-5 01:42 2900 AUBREY AVE 76 ASSIST OTHER AGENCY
202000223696 4-5 01:41 I95 S OFF RAMP / JTB E ON RAMP 38 TRAFFIC ASSIGNMENT
202000223689 4-5 01:38 MACGREGOR DR / CINDERELLA RD 60 SUICIDE OR ATTEMPT
202000223568 4-5 01:34 1700 BLANDING BLVD 64 NOISE COMPLAINT
202000223686 4-5 01:34 EDGEWOOD AVE W / CARNATION RD 1050 TRAFFIC STOP
202000223611 4-5 01:33 7700 PLANTATION BAY DR 64 NOISE COMPLAINT
202000223685 4-5 01:33 6800 PHILIPS HWY 1050 TRAFFIC STOP
202000223684 4-5 01:33 300 24TH ST W 63 DISPUTE
202000223680 4-5 01:29 1000 AIRPORT RD 63 DISPUTE
202000223633 4-5 01:28 1300 BROAD ST N 27 MENTALLY ILL PERSON
202000223676 4-5 01:27 SOUTEL/MONCRIEF RD 1050 TRAFFIC STOP
202000223660 4-5 01:25 5500 BENNINGTON DR 13 SUSPICIOUS PERSON
202000223673 4-5 01:24 10800 ATLANTIC BLVD 38 TRAFFIC ASSIGNMENT
202000223522 4-5 01:23 100 42ND ST W 22 DOMESTIC
202000223606 4-5 01:23 300 IVY ST 64 NOISE COMPLAINT
202000223574 4-5 01:22 1400 WIGMORE ST 64 NOISE COMPLAINT
202000223657 4-5 01:19 4200 SOUTHSIDE BLVD 63 DISPUTE
202000223667 4-5 01:18 7100 NORMANDY BLVD 13 SUSPICIOUS PERSON
202000223666 4-5 01:18 7100 NORMANDY 13 SUSPICIOUS PERSON
202000223632 4-5 01:17 2300 EDGEWOOD AVE W 68 CON GAME/FLIM FLAM
202000223665 4-5 01:16 BRANNON AVE / BUTTERCUP ST 76 ASSIST OTHER AGENCY
202000223663 4-5 01:16 5200 SOUTEL DR 13 SUSPICIOUS PERSON
202000223664 4-5 01:15 STATE/MAIN 1050 TRAFFIC STOP
202000223655 4-5 01:14 700 VENUS-MARS CT 76 ASSIST OTHER AGENCY
202000223659 4-5 01:13 ARLINGTON XY SERVICE RD / CENTURY ST 76 ASSIST OTHER AGENCY
202000223648 4-5 01:13 2700 HAMILTON CIR 64 NOISE COMPLAINT
202000223636 4-5 01:10 ETOWN PKWY / SQUARE ST 12 RECKLESS DRIVER
202000223654 4-5 01:10 400 49TH ST W 60 SUICIDE OR ATTEMPT
202000223630 4-5 01:10 1800 BREWSTER RD 63 DISPUTE
202000223653 4-5 01:08 5400 SOUTH BEND CIR N 63 DISPUTE
202000223650 4-5 01:08 9200 SEAWOLF CT 8 MISSING PERSON
202000223641 4-5 01:07 3000 HAWKS HILL LN 64 NOISE COMPLAINT
202000223647 4-5 01:06 BROADWAY AVE / WESTBROOK RD 64 NOISE COMPLAINT
202000223624 4-5 00:52 WILSON BLVD / JAMMES RD 1050 TRAFFIC STOP
202000223619 4-5 00:49 4100 HECKSCHER DR 63 DISPUTE
202000223617 4-5 00:48 5900 DIAN WOOD DR 13 SUSPICIOUS PERSON
202000223604 4-5 00:47 8300 HOGAN RD 64 NOISE COMPLAINT
202000223587 4-5 00:46 3800 LOSCO RD 64 NOISE COMPLAINT
202000223616 4-5 00:45 10000 BEACH BLVD 38 TRAFFIC ASSIGNMENT
202000223595 4-5 00:41 5900 WINDSOR FOREST DR 13 SUSPICIOUS PERSON
202000223613 4-5 00:41 23RD ST E / JONES ST 1050 TRAFFIC STOP
202000223579 4-5 00:41 4600 MONCRIEF VILLAGE E 2 63 DISPUTE IMPAIRED/INTOXICATED
202000223600 4-5 00:41 BRIARCLIFF RD E / DUNN AVE 63 DISPUTE
202000223610 4-5 00:40 I95 S OFF RAMP / MARTIN LUTHER KING JR PKWY 1050 TRAFFIC STOP
202000223601 4-5 00:39 1200 STEELE CT 13 SUSPICIOUS PERSON
202000223597 4-5 00:38 2600 COBBLESTONE FOREST CIR W 2 22 DOMESTIC DISTURBANCE
202000223598 4-5 00:37 5100 SHENANDOAH AVE 64 NOISE COMPLAINT
202000223565 4-5 00:32 7900 103RD ST 1066 CANCEL
202000223576 4-5 00:32 2300 EDGEWOOD AVE W 13 SUSPICIOUS PERSON
202000223586 4-5 00:32 4800 ORTEGA FARMS BLVD 13 SUSPICIOUS PERSON
202000223562 4-5 00:32 BUSCH DR N / IMESON PARK BLVD 12 RECKLESS DRIVER
202000223589 4-5 00:30 10100 103RD ST 63 DISPUTE
202000223583 4-5 00:28 6800 SKAFF AVE 2288 DOMESTIC DISPUTE WITH/ASSAULT
202000223588 4-5 00:28 PINE ESTATES RD E / DUNN AVE 12 RECKLESS DRIVER
202000223585 4-5 00:27 1500 LANE AVE S 0 13 ARMED SUSPICIOUS PERSON
202000223539 4-5 00:25 PINE ACRES RD / HARTLEY RD 64 NOISE COMPLAINT
202000223573 4-5 00:22 1300 16TH ST W 2 22 DOMESTIC DISTURBANCE
202000223477 4-5 00:16 800 28TH ST W 22 DOMESTIC
202000223541 4-5 00:16 6100 YOUNGERMAN CIR 2 IMPAIRED/INTOXICATED
202000223570 4-5 00:15 JAMMES RD / BALLEJO CT N 1050 TRAFFIC STOP
202000223563 4-5 00:12 2400 NEW BERLIN RD 76 ASSIST OTHER AGENCY
202000223516 4-5 00:12 1700 LONDONDERRY RD 88 ASSAULT
202000223486 4-5 00:12 500 CHAFFEE RD S 64 NOISE COMPLAINT
202000223560 4-5 00:11 1000 LANE AVE N 37 UNVERIFIED 911 CALL
202000223561 4-5 00:10 1100 EVERGREEN AVE 1050 TRAFFIC STOP
202000223559 4-5 00:10 MERRILL RD / ROGERO RD 1050 TRAFFIC STOP
202000223555 4-5 00:09 LAKE LUCINA DR / UNIVERSITY BLVD 33 DISCHARGING OF FIREARM
202000223556 4-5 00:09 A PHILIP RANDOLPH BLVD / PHELPS ST 1050 TRAFFIC STOP
202082006712 4-5 00:07 900 JASMINE ST 11 ABANDONED VEHICLE
202000223551 4-5 00:06 2000 MEHARRY AVE 27 MENTALLY ILL PERSON
202000223538 4-5 00:06 10100 ARROWHEAD DR 64 NOISE COMPLAINT
202000223552 4-5 00:05 4900 POST ST 6388 DISPUTE WITH ASSAULT
202000223550 4-5 00:04 MILNOR ST / BROWNS ALY 1050 TRAFFIC STOP
202000223549 4-5 00:03 ROOSEVELT BLVD / SAN JUAN AVE 1050 TRAFFIC STOP
202000223528 4-5 00:03 7700 PEPPER CIR W 64 NOISE COMPLAINT
202000223545 4-5 00:03 KORI RD / SAN JOSE BLVD 13 SUSPICIOUS PERSON
202082006711 4-5 00:02 500 BEACH AVE 21R BURGLARY RESIDENCE
202000223540 4-5 00:02 800 ALDERMAN RD 13 SUSPICIOUS PERSON
202000223543 4-5 00:01 2500 BAYVIEW RD 7 DEAD PERSON
202000223457 4-4 23:59 NEW BERLIN RD / CEDAR POINT RD 12 RECKLESS DRIVER
202000223493 4-4 23:58 2900 POST ST 6388 DISPUTE WITH ASSAULT
202000223534 4-4 23:57 8TH ST E / MARKET ST N 64 NOISE COMPLAINT
202000223533 4-4 23:56 5500 PLAYA WAY 1066 CANCEL
202000223532 4-4 23:55 1ST ST E / LIBERTY ST N 1050 TRAFFIC STOP
202000223531 4-4 23:55 WILSON AND JAMMES 13 SUSPICIOUS PERSON
202000223530 4-4 23:54 5700 PHILIPS HWY 1050 TRAFFIC STOP
202000223406 4-4 23:54 400 THOMPSON ST 13 SUSPICIOUS PERSON
202000223473 4-4 23:52 1300 MURRAY DR 63 DISPUTE
202000223527 4-4 23:52 2700 CHERRYWOOD RD 76 ASSIST OTHER AGENCY
202000223524 4-4 23:51 3000 HAWKS HILL LN 64 NOISE COMPLAINT
202000223517 4-4 23:51 2000 13TH ST W 2 63 DISPUTE IMPAIRED/INTOXICATED
202000223440 4-4 23:51 1300 BRIDIER ST 64 NOISE COMPLAINT
202000223525 4-4 23:49 100 5TH ST E 13 SUSPICIOUS PERSON
202000223523 4-4 23:48 300 LAURINA ST 56 JUVENILE COMPLAINT
202000223518 4-4 23:47 3700 TOLEDO RD 63 DISPUTE
202000223460 4-4 23:47 1100 32ND ST W 22 DOMESTIC
202000223521 4-4 23:45 MONCRIEF/EDGEWOOD 1050 TRAFFIC STOP
202000223519 4-4 23:44 GOLFAIR BLVD / BALDWIN LN 1050 TRAFFIC STOP
202000223504 4-4 23:44 200 SAN PABLO RD N 2 63 DISPUTE IMPAIRED/INTOXICATED
202000223515 4-4 23:44 7600 DOVER CLIFF DR S 79 OBSCENE / THREAT CALL OR LETTER
202000223512 4-4 23:42 2700 ROGERO RD 22 DOMESTIC
202082006709 4-4 23:41 900 ATLANTIC BLVD 13 SUSPICIOUS PERSON
202000223511 4-4 23:40 2900 SALEM CT 27 MENTALLY ILL PERSON
202000223455 4-4 23:40 DE KALB AVE / TURNER AVE 33 DISCHARGING OF FIREARM
202000223513 4-4 23:40 8200 PHILIPS HWY 63 DISPUTE
202000223505 4-4 23:38 500 LANE AVE S 64 NOISE COMPLAINT
202000223397 4-4 23:38 800 WYOLEN ST 64 NOISE COMPLAINT
202000223211 4-4 23:37 2700 SR A1A 33 DISCHARGING OF FIREARM
202000223502 4-4 23:35 12200 DUNN CREEK RD 64 NOISE COMPLAINT
202000223494 4-4 23:33 2600 COBBLESTONE FOREST CIR W 2 22 DOMESTIC DISTURBANCE
202000223496 4-4 23:33 12300 AMANDA COVE TRL 76 ASSIST OTHER AGENCY
202000223488 4-4 23:33 1600 RIVERSIDE AVE 64 NOISE COMPLAINT
202000223439 4-4 23:32 4800 POLARIS ST 64 NOISE COMPLAINT
202000223208 4-4 23:31 2600 MONTREAL ST 33 DISCHARGING OF FIREARM
202000223495 4-4 23:31 SAN JOSE BLVD / MANDARIN RD 1050 TRAFFIC STOP
202000223490 4-4 23:30 400 67TH ST W 76 ASSIST OTHER AGENCY
202000223482 4-4 23:30 9500 ARMELLE WAY 64 NOISE COMPLAINT
202000223492 4-4 23:30 POWERS AVE / UNIVERSITY BLVD W 1050 TRAFFIC STOP
202000223480 4-4 23:29 2600 UNIVERSITY BLVD 64 NOISE COMPLAINT
202000223484 4-4 23:29 10800 HARTS RD 88 ASSAULT
202000223390 4-4 23:28 6300 COLLINS RD 64 NOISE COMPLAINT
202000223479 4-4 23:28 ATLANTIC BLVD / SUNNYSIDE AVE 16 ROAD OBSTRUCTION
202000223487 4-4 23:28 200 UNION ST W 76 ASSIST OTHER AGENCY
202000223474 4-4 23:28 7900 103RD ST 76 ASSIST OTHER AGENCY
202000223478 4-4 23:25 5800 GREENLAND CHASE BLVD 13 SUSPICIOUS PERSON
202000223475 4-4 23:25 10200 MELANIE AVE 60 SUICIDE OR ATTEMPT
202000223476 4-4 23:25 5000 PHILIPS HWY 38 TRAFFIC ASSIGNMENT
202000223472 4-4 23:22 KERNAN BLVD S / KENSINGTON LAKES DR 12 RECKLESS DRIVER
202000223469 4-4 23:21 11100 BEACH BLVD 60 SUICIDE OR ATTEMPT
202082006707 4-4 23:20 SEMINOLE RD / PLAZA 1050 TRAFFIC STOP
202000223462 4-4 23:19 9800 CREEKFRONT RD 2288 DOMESTIC DISPUTE WITH/ASSAULT
202000223466 4-4 23:18 COACHMAN LAKES DR / FOAL LN 64 NOISE COMPLAINT
202000223461 4-4 23:18 8700 NEWTON RD 64 NOISE COMPLAINT
202000223452 4-4 23:16 1500 KINGS RD 60 SUICIDE OR ATTEMPT
202000223448 4-4 23:16 4200 PHILIPS HWY 33 DISCHARGING OF FIREARM
202000223459 4-4 23:15 CANAL/23RD 1050 TRAFFIC STOP
202000223458 4-4 23:15 3800 MACGREGOR DR 76 ASSIST OTHER AGENCY
202000223430 4-4 23:15 40TH ST W / PANAMA RD 64 NOISE COMPLAINT
202000223446 4-4 23:15 7000 PEARL ST N 63 DISPUTE
202000223456 4-4 23:14 CANAL/23RD 1050 TRAFFIC STOP
202000223419 4-4 23:14 9700 103RD ST 64 NOISE COMPLAINT
202000223450 4-4 23:13 3700 TOLEDO RD 0 88J ARMED ASSAULT JUST OCCURRED
202000223451 4-4 23:13 2200 ART MUSEUM DR 88J ASSAULT JUST OCCURRED
202000223447 4-4 23:13 5500 118TH ST 63 DISPUTE
202000223449 4-4 23:13 LEM TURNER/95 1050 TRAFFIC STOP
202000223444 4-4 23:12 1200 W 4TH ST 1050 TRAFFIC STOP
202000223443 4-4 23:11 SOUTEL DR / LEM TURNER RD 1050 TRAFFIC STOP
202000223418 4-4 23:11 MAIN ST N / 63RD ST E 13 SUSPICIOUS PERSON
202000223384 4-4 23:09 2400 SPRING PARK RD 33 DISCHARGING OF FIREARM
202000223433 4-4 23:08 NANCY ST / 25TH ST W 14RJ VANDALISM RESIDENCE JUST OCCURRED
202000223434 4-4 23:06 LEM TURNER/LILA 1050 TRAFFIC STOP
202000223417 4-4 23:06 1300 30TH ST W 1066 CANCEL
202000223431 4-4 23:05 OLD KINGS RD / LOREE ST 57 PERSON CALLING FOR HELP
202082006706 4-4 23:04 10TH ST / OCEAN BLVD 1050 TRAFFIC STOP
202000223425 4-4 23:03 4600 BIRD AVE 64 NOISE COMPLAINT
202000223422 4-4 23:01 5600 CALIFORNIA AVE 13 SUSPICIOUS PERSON
202000223399 4-4 22:59 LAMBERT ST / 11TH ST E 64 NOISE COMPLAINT
202000223415 4-4 22:59 3600 PORT JACKSONVILLE PKWY 12 RECKLESS DRIVER
202000223409 4-4 22:58 9800 OLD BAYMEADOWS RD 2288 DOMESTIC DISPUTE WITH/ASSAULT
202000223414 4-4 22:58 5500 CONNIE JEAN RD 22 DOMESTIC
202000223403 4-4 22:58 5100 STEPP AVE 37 UNVERIFIED 911 CALL
202000223389 4-4 22:58 1400 WINDLE ST 64 NOISE COMPLAINT
202000223392 4-4 22:56 7500 RABORN LN 63 DISPUTE
202000223410 4-4 22:56 KING ST / ST JOHNS AVE 1050 TRAFFIC STOP
202000223408 4-4 22:56 2900 KELSO CIR E 12 RECKLESS DRIVER
202000223407 4-4 22:55 2300 BETHUNE AVE 4 AUTO CRASH
202000223405 4-4 22:55 I295 / I95 38 TRAFFIC ASSIGNMENT
202000223386 4-4 22:54 4000 JAMMES RD 63 DISPUTE
202000223400 4-4 22:53 3500 INDIGO DR 64 NOISE COMPLAINT
202000223081 4-4 22:52 HARTS RD / TURTLE CREEK DR N 13 SUSPICIOUS PERSON
202000223381 4-4 22:51 8200 BERGERAC DR S 13 SUSPICIOUS PERSON
202000223398 4-4 22:50 OCEAN ST / SR A1A 13 SUSPICIOUS PERSON
202000223258 4-4 22:50 4200 DUNN AVE 9 THEFT
202000223383 4-4 22:50 8TH ST E / MARKET ST N 2 IMPAIRED/INTOXICATED
202000223346 4-4 22:50 1100 MURRAY DR 63 DISPUTE
202000223396 4-4 22:48 MITCHELL AVE / BETHUNE AVE 13 SUSPICIOUS PERSON
202000223394 4-4 22:48 1300 AZTECA DR 63 DISPUTE
202000223395 4-4 22:47 SMYRNA/IDA 1050 TRAFFIC STOP
202000223374 4-4 22:47 10900 BEACH BLVD 64 NOISE COMPLAINT
202000223388 4-4 22:47 1300 30TH ST W 22 DOMESTIC
202000223391 4-4 22:46 CLEVEN/EVENTIDE 1050 TRAFFIC STOP
202000223350 4-4 22:45 2900 PARENTAL HOME RD 27 MENTALLY ILL PERSON
202000223376 4-4 22:45 9000 WESTERN LAKE DR 64 NOISE COMPLAINT
202000223385 4-4 22:44 2300 PHILIPS HWY 1050 TRAFFIC STOP
202000223378 4-4 22:43 12900 BROXTON BAY DR 64 NOISE COMPLAINT
202000223382 4-4 22:43 2400 SAN DIEGO RD 33 DISCHARGING OF FIREARM
202000223369 4-4 22:43 5900 WOODSIDE DR 64 NOISE COMPLAINT
202000223380 4-4 22:42 JTB E OFF RAMP / SOUTHSIDE BLVD 1050 TRAFFIC STOP
202000223343 4-4 22:42 10200 NORMANDY BLVD 22 DOMESTIC
202000223379 4-4 22:42 26TH ST W / PERRY ST 1050 TRAFFIC STOP
202000223325 4-4 22:40 5900 FIRESTONE RD 86 LOST PROPERTY
202000223371 4-4 22:39 KERNAN BLVD N / MCCORMICK RD 12 RECKLESS DRIVER
202000223370 4-4 22:38 BEAVER/GARFIELD 1050 TRAFFIC STOP
202000223365 4-4 22:37 14000 BEACH BLVD 33 DISCHARGING OF FIREARM
202000223362 4-4 22:37 NEW BERLIN RD / DAYLIGHT TRL 64 NOISE COMPLAINT
202000223363 4-4 22:37 12TH ST E / BENNETT ST 63 DISPUTE
202000223338 4-4 22:37 4500 HARLOW BLVD 63 DISPUTE
202000223364 4-4 22:36 6800 PHILIPS HWY 38 TRAFFIC ASSIGNMENT
202000223360 4-4 22:34 8TH ST E / SPEARING ST 13 SUSPICIOUS PERSON
202000223356 4-4 22:34 5000 FOXBORO RD 63 DISPUTE
202082006705 4-4 22:34 300 BEACH AVE 13 SUSPICIOUS PERSON
202000223357 4-4 22:34 400 45TH ST E 73 DRUG INVESTIGATION
202000223358 4-4 22:33 ST AUGUSTINE RD / SAN JOSE BLVD 12 RECKLESS DRIVER
202000223355 4-4 22:33 3600 BEDFORD ROAD 13 SUSPICIOUS PERSON
202000223348 4-4 22:31 2600 WYLENE ST 2 22 DOMESTIC DISTURBANCE
202000223347 4-4 22:27 DEBUTANTE DR / BRADLEY RD 33 DISCHARGING OF FIREARM
202000223345 4-4 22:25 34TH/PEARCE ST 1050 TRAFFIC STOP
202000223344 4-4 22:25 600 BONAPARTE DR 12 RECKLESS DRIVER
202000223342 4-4 22:25 100 61ST ST E 33 DISCHARGING OF FIREARM
202000223341 4-4 22:24 7300 NORTHLAND ST 33 DISCHARGING OF FIREARM
202000223335 4-4 22:23 500 LANE AVE S 13 SUSPICIOUS PERSON
202000223336 4-4 22:23 4800 PLYMOUTH ST 7 DEAD PERSON
202000223337 4-4 22:23 CASSAT AVE / SAN JUAN AVE 3 HIT AND RUN CRASH
202000223332 4-4 22:20 10200 WHISPERING FOREST DR 2 22 DOMESTIC DISTURBANCE
202000223334 4-4 22:20 PEARL ST N / 12TH ST W 1050 TRAFFIC STOP
202000223320 4-4 22:20 2500 JAMMES RD 64 NOISE COMPLAINT
202000223331 4-4 22:19 8100 ALDERMAN RD 12 RECKLESS DRIVER
202000223324 4-4 22:17 22ND ST E / MAIN ST N 0 23IJ ARMED ROBBERY INDIVIDUAL JUST OCCURRED
202000223321 4-4 22:15 3200 JUSTINA RD 64 NOISE COMPLAINT
202000223281 4-4 22:15 2000 13TH ST W 2 63 DISPUTE IMPAIRED/INTOXICATED
202000223314 4-4 22:14 GOSHAWK DR N / DOVETAIL DR E 64 NOISE COMPLAINT
202000223317 4-4 22:12 LEM TURNER/BELVEDER 1050 TRAFFIC STOP
202000223311 4-4 22:11 3200 LAKE SHORE BLVD 90 FIREWORKS
202000223313 4-4 22:11 MONCREIF/45TH 1050 TRAFFIC STOP
202000223291 4-4 22:09 700 SKYMARKS DR 64 NOISE COMPLAINT
202000223306 4-4 22:09 4800 ATTLEBORO ST 13 SUSPICIOUS PERSON
202000223305 4-4 22:07 500 BUSCH DR 76 ASSIST OTHER AGENCY
202000223304 4-4 22:07 3000 PURDOM DR 64 NOISE COMPLAINT
202000223300 4-4 22:06 4200 OCEAN ST 37 UNVERIFIED 911 CALL
202000223303 4-4 22:06 I95 S OFF RAMP / JTB ON RAMP 1050 TRAFFIC STOP
202000223285 4-4 22:06 500 BAY ST E 9T THEFT (TELESERVE)
202000223295 4-4 22:06 800 FRANKLIN ST 0 61 FIGHT W/WEAPON
202000223302 4-4 22:05 GOLFAIR/CHASE 1050 TRAFFIC STOP
202000223289 4-4 22:05 1700 45TH ST W 63 DISPUTE
202000223297 4-4 22:03 MLKEXIT PHOENIX RP / PHOENIX AVE 1050 TRAFFIC STOP
202000223296 4-4 22:03 MONCRIEF/MLK 1050 TRAFFIC STOP
202000223287 4-4 22:03 3900 ANVERS BLVD 22 DOMESTIC
202000223286 4-4 22:02 9500 APPLECROSS RD 6388 DISPUTE WITH ASSAULT
202000223288 4-4 22:01 LEM TURNER/ROWE 1050 TRAFFIC STOP
202000223284 4-4 21:59 7900 MENDOZA DR 63 DISPUTE
202000223257 4-4 21:58 4900 BULLS BAY HWY 63 DISPUTE
202000223246 4-4 21:57 1500 6TH ST W 63 DISPUTE
202000223282 4-4 21:56 2600 CESERY BLVD 73 DRUG INVESTIGATION
202000223275 4-4 21:53 7900 103RD ST 64 NOISE COMPLAINT
202082006702 4-4 21:53 1700 BLK LIVE OAK LN 21C BURGLARY CONVEYANCE
202000223242 4-4 21:51 3900 MCGIRTS BLVD 13 SUSPICIOUS PERSON
202000223264 4-4 21:51 2400 OLSON LN 1066 CANCEL
202000223278 4-4 21:51 ROOSEVELT BLVD / I295 N OFF RAMP 1 IMPAIRED/DRUNK DRIVER
202000223276 4-4 21:49 UNIVERSITY BLVD / WATEREDGE DR S 1050 TRAFFIC STOP
202000223268 4-4 21:48 2000 RIVERSIDE AVE 13 SUSPICIOUS PERSON
202000223130 4-4 21:48 5900 FIRESTONE RD 22 DOMESTIC
202000223261 4-4 21:47 2500 SRA1A HWY 13 SUSPICIOUS PERSON
202000223270 4-4 21:45 ST AUGUSTINE RD / TEDDER LN 1050 TRAFFIC STOP
202000223223 4-4 21:45 1200 BROAD ST N 22 DOMESTIC
202000223267 4-4 21:43 4700 AMHERST ST 33 DISCHARGING OF FIREARM
202000223255 4-4 21:41 4000 SUNBEAM RD 22 DOMESTIC
202000223137 4-4 21:40 1100 DUNN AVE 4 AUTO CRASH
202000223259 4-4 21:39 2100 MEHARRY AVE 2 22 DOMESTIC DISTURBANCE
202000223202 4-4 21:38 JULIA ST N / BAY ST W 68 CON GAME/FLIM FLAM
202000223245 4-4 21:36 2800 OLGA PL 14 VANDALISM
202000223251 4-4 21:36 RAYFORD ST / DAY AVE 22 DOMESTIC
202000223234 4-4 21:34 5300 ARLINGTON EXPY 13 SUSPICIOUS PERSON
202000223250 4-4 21:33 21ST ST E / MAIN ST N 1050 TRAFFIC STOP
202000223217 4-4 21:32 2000 PARK ST 21R BURGLARY RESIDENCE
202082006700 4-4 21:31 2400 MAYPORT RD 27 MENTALLY ILL PERSON
202000223244 4-4 21:30 1100 KENDALL TOWN BLVD 50 FOUND/ABANDONED PROPERTY
202000223243 4-4 21:30 3800 CROWN POINT RD 12 RECKLESS DRIVER
202000223236 4-4 21:29 1100 BUNKER HILL BLVD 22 DOMESTIC
202000223204 4-4 21:27 500 BAY ST E 9T THEFT (TELESERVE)
202000223186 4-4 21:26 9500 ARMELLE WAY 64 NOISE COMPLAINT
202000223228 4-4 21:26 1100 28TH ST W 63 DISPUTE
202000223237 4-4 21:25 MLKEXIT BLVD RP / BOULEVARD 1050 TRAFFIC STOP
202000223231 4-4 21:24 5400 BUFFALO AVE 63 DISPUTE
202000223233 4-4 21:23 1500 STATE ST W 1050 TRAFFIC STOP
202000223221 4-4 21:23 ARLINGTON RD S / ARALIA LN 21BP BURGLARY BUSINESS IN PROGRESS
202000223230 4-4 21:23 GOLFAIR/BALDWIN 1050 TRAFFIC STOP
202000223219 4-4 21:22 2900 PRESERVE LANDING DR 1066 CANCEL
202000223220 4-4 21:21 800 HAINES ST 50 FOUND/ABANDONED PROPERTY
202000223215 4-4 21:20 3200 JUSTINA RD 64 NOISE COMPLAINT
202000223218 4-4 21:18 I95 N / JTB E OFF RAMP 1050 TRAFFIC STOP
202000223214 4-4 21:17 8200 GREEN PARROT RD 64 NOISE COMPLAINT
202000223209 4-4 21:16 13400 BONEY RD 4 AUTO CRASH
202000223210 4-4 21:16 200 25TH ST E 0 63 ARMED DISPUTE
202000223207 4-4 21:16 2700 MAYPORT RD 33 DISCHARGING OF FIREARM
202000223192 4-4 21:15 I95 S OFF RAMP / EMERSON ST 4 53 TRAFFIC CRASH PERSON INJURED
202000223194 4-4 21:14 3100 20TH ST W 1066 CANCEL
202000223203 4-4 21:12 EDGEWOOD AVE S / LENOX AVE 13 SUSPICIOUS PERSON
202000223159 4-4 21:12 1500 WINDLE ST 63 DISPUTE
202000223168 4-4 21:12 5600 CAGLE RD 63 DISPUTE
202000223197 4-4 21:11 5300 TEQUESTA CT 5388 ASSAULT INVOLVING INJURY
202000223196 4-4 21:11 1800 EDGEWOOD AVE W 27 MENTALLY ILL PERSON
202000223199 4-4 21:11 ST AUGUSTINE RD / POWERS AVE 1050 TRAFFIC STOP
202000223190 4-4 21:09 6400 ATLANTIC BLVD 4 AUTO CRASH
202000223188 4-4 21:07 I95 S OFF RAMP / UNIVERSITY BLVD W 4 53 TRAFFIC CRASH PERSON INJURED
202000223185 4-4 21:06 1100 PIPPIN ST 63 DISPUTE
202000223124 4-4 21:04 6700 TINKERBELL LN 22 DOMESTIC
202000223181 4-4 21:04 1000 CALIENTE DR 13 SUSPICIOUS PERSON
202000223174 4-4 21:01 13600 COVINGTON CREEK DR 63 DISPUTE
202000223166 4-4 21:01 3800 ROBERT C WEAVER DR 63 DISPUTE
202000223070 4-4 21:01 1600 30TH ST W 63 DISPUTE
202000223162 4-4 21:00 10300 SHELBY CREEK RD N 63 DISPUTE
202000223165 4-4 21:00 1500 KINGS RD 0 13 ARMED SUSPICIOUS PERSON
202000223171 4-4 21:00 400 CHURCH ST W 13 SUSPICIOUS PERSON
202000223144 4-4 21:00 4700 TREVI DR 90 FIREWORKS
202000223172 4-4 21:00 ACME ST / KONA AVE 33 DISCHARGING OF FIREARM
202000223046 4-4 20:59 7500 FANNING DR 63 DISPUTE
202000223170 4-4 20:59 1100 14TH ST E 4 53 TRAFFIC CRASH PERSON INJURED
202000223150 4-4 20:59 7900 BAYMEADOWS CIR E 90 FIREWORKS
202000223160 4-4 20:59 3600 PHILIPS HWY 1066 CANCEL
202000223163 4-4 20:58 JASPER AVE / ARLINGTON PL 33 DISCHARGING OF FIREARM
202000223164 4-4 20:58 TOWN CENTER PKWY / GATE PKWY 1050 TRAFFIC STOP
202000223139 4-4 20:58 9700 SOUTHBROOK DR 90 FIREWORKS
202000223158 4-4 20:57 PANAMA RD / 40TH ST W 64 NOISE COMPLAINT
202000223157 4-4 20:56 EDGEWOOD AVE S / LENOX AVE 1050 TRAFFIC STOP
202000223156 4-4 20:56 11900 ATLANTIC BLVD 38 TRAFFIC ASSIGNMENT
202000223155 4-4 20:56 GRAVES ST / THUMPER ST 13 SUSPICIOUS PERSON
202000223152 4-4 20:55 LENOIR AVE / BONNEVAL RD 63 DISPUTE
202000223153 4-4 20:54 ROOSEVELT BLVD / ST JOHNS AVE 1050 TRAFFIC STOP
202000223151 4-4 20:54 JTB / HODGES BLVD 38 TRAFFIC ASSIGNMENT
202000223136 4-4 20:52 2300 WOODLAND ST 63 DISPUTE
202000223145 4-4 20:51 2700 MAYPORT RD 64 NOISE COMPLAINT
202000223128 4-4 20:50 1600 BISCAYNE BAY DR 2288 DOMESTIC DISPUTE WITH/ASSAULT
202000223135 4-4 20:49 1100 28TH ST W 63 DISPUTE
202000223142 4-4 20:49 EATON AVE / BOWLAN ST N 33 DISCHARGING OF FIREARM
202000223127 4-4 20:49 10500 ASHBY RD 1066 CANCEL
202000223086 4-4 20:48 3000 GREEN ST 27 MENTALLY ILL PERSON
202000223112 4-4 20:47 1500 LOUISIANA ST 8 MISSING PERSON
202000223080 4-4 20:46 5200 LENOX AVE 21B BURGLARY BUSINESS
202000223120 4-4 20:46 10200 BELLE RIVE BLVD 64 NOISE COMPLAINT
202000223123 4-4 20:45 4400 DEERWOOD LAKE PKWY 13 SUSPICIOUS PERSON
202000223113 4-4 20:44 3800 UNIVERSITY BLVD S 33 DISCHARGING OF FIREARM
202000223119 4-4 20:44 5800 ATLANTIC BLVD 63 DISPUTE
202000223129 4-4 20:42 8000 SOUTHSIDE BLVD 33 DISCHARGING OF FIREARM
202000223118 4-4 20:42 1800 EAVERSON ST 63 DISPUTE
202000223121 4-4 20:37 3700 SOUTEL DR 76 ASSIST OTHER AGENCY
202000223126 4-4 20:35 WILDERLAND DR / CELEBRANT DR 33 DISCHARGING OF FIREARM
202000223109 4-4 20:33 SAN JUAN AVE / BLANDING BLVD 33 DISCHARGING OF FIREARM
202000223110 4-4 20:29 LANE AVE S / WILSON BLVD 1050 TRAFFIC STOP
202000223104 4-4 20:28 4100 SOUTHPOINT DR E 27 MENTALLY ILL PERSON
202000223101 4-4 20:28 900 BROWARD RD 2 22 DOMESTIC DISTURBANCE
202000222853 4-4 20:27 UNIVERSITY BLVD W / RICHARD ST 91 TRAFFIC LIGHT/RR CROSSING MALFUNCTION
202000223088 4-4 20:27 4800 WINDRUSH LN 64 NOISE COMPLAINT
202000223092 4-4 20:21 8000 BEACH BLVD 33 DISCHARGING OF FIREARM
202000223085 4-4 20:20 1700 6TH ST W 63 DISPUTE
202000223082 4-4 20:19 4500 REVELSTOKE DR 22 DOMESTIC
202000223087 4-4 20:19 15200 LANDMARK CIR S 63 DISPUTE
202000223062 4-4 20:16 DUNN AVE / HARTS RD 4 AUTO CRASH
202000223076 4-4 20:16 5900 PATTERSON AVE 86 LOST PROPERTY
202000222996 4-4 20:16 1300 PULLEN RD 63 DISPUTE
202000223079 4-4 20:15 3600 POST ST 76 ASSIST OTHER AGENCY
202000223053 4-4 20:14 100 ARLINGTON RD S 63 DISPUTE
202000223078 4-4 20:13 2500 HUBBARD ST 22 DOMESTIC
202000223060 4-4 20:12 3100 BRASQUE DR 63 DISPUTE
202000223009 4-4 20:12 1000 WILLOW BRANCH AVE 50 FOUND/ABANDONED PROPERTY
202000223073 4-4 20:11 5200 BIG ISLAND DR 95IDT IDENTITY THEFT TELESERVE
202000223075 4-4 20:11 AIRPORT/NB 95 1050 TRAFFIC STOP
202000223055 4-4 20:10 2800 8TH ST W 63 DISPUTE
202000223071 4-4 20:10 7700 PLANTATION BAY DR 10R VEHICLE THEFT RECOVERY
202000223042 4-4 20:07 6500 ARANCIO DR W 64 NOISE COMPLAINT
202000223065 4-4 20:07 100 45TH ST E 63 DISPUTE
202000223040 4-4 20:06 9900 103RD ST 2288 DOMESTIC DISPUTE WITH/ASSAULT
202000223061 4-4 20:06 13000 GRAN BAY PKWY 73 DRUG INVESTIGATION
202000223051 4-4 20:04 1300 HUBBARD ST 2 63 DISPUTE IMPAIRED/INTOXICATED
202000223057 4-4 20:04 10500 LEM TURNER RD 63 DISPUTE
202000223056 4-4 20:03 KERNAN BLVD N / ATLANTIC BLVD SERVICE RD 16 ROAD OBSTRUCTION
202000223045 4-4 20:03 5200 SEASPRAY AVE 61 FIGHT
202000223054 4-4 20:02 8TH ST W / I95 N OFF RAMP 1050 TRAFFIC STOP
202000223052 4-4 20:02 11100 WILLESDON DR S 76 ASSIST OTHER AGENCY
202000222992 4-4 20:01 TALLULAH AVE / PEARL ST N 64 NOISE COMPLAINT
202000223024 4-4 20:01 5500 KEYSTONE DR N 64 NOISE COMPLAINT